FW2972 Weather Reports


Display with metric or nautical units.
time (UTC)temp
F
wind
direction
speed
MPH
gust
MPH
rain 1hr
in
rain 24hr
in
rain mn
in
humidity
%
barometer
mb
20260831115306 77 191 0.0 1.0 0.00 0.00 0.00 99 1016.3
20260831114805 77 315 0.0 0.0 0.00 0.00 0.00 99 1016.2
20260831114304 77 102 0.0 2.0 0.00 0.00 0.00 99 1016.2
20260831113800 77 10 0.0 1.0 0.00 0.00 0.00 99 1015.9
20260831113259 77 32 0.0 0.0 0.00 0.00 0.00 99 1016.1
20260831112754 77 315 0.0 1.0 0.00 0.00 0.00 99 1016.1
20260831112249 77 335 0.0 1.0 0.00 0.00 0.00 99 1015.9
20260831111744 77 50 0.0 1.0 0.00 0.00 0.00 99 1016.0
20260831111241 77 205 0.0 0.0 0.00 0.00 0.00 99 1016.0
20260831110736 77 220 0.0 1.0 0.00 0.00 0.00 99 1015.8
20260831110231 77 0 0.0 1.0 0.00 0.00 0.00 99 1016.2
20260831105730 78 15 0.0 1.0 0.00 0.00 0.00 99 1015.9
20260831105226 78 230 0.0 1.0 0.00 0.00 0.00 99 1016.2
20260831104720 78 242 0.0 2.0 0.00 0.00 0.00 99 1015.8
20260831104217 78 217 0.0 1.0 0.00 0.00 0.00 99 1015.9
20260831103716 78 209 0.0 1.0 0.00 0.00 0.00 99 1016.1
20260831103213 78 164 0.0 1.0 0.00 0.00 0.00 99 1016.1
20260831102712 78 304 0.0 1.0 0.00 0.00 0.00 99 1016.2
20260831102207 78 242 0.0 0.0 0.00 0.00 0.00 99 1016.0
20260831101702 78 147 0.0 1.0 0.00 0.00 0.00 99 1016.0
20260831101158 78 309 0.0 1.0 0.00 0.00 0.00 99 1016.2
20260831100654 78 343 0.0 0.0 0.00 0.00 0.00 99 1016.1
20260831100150 78 343 0.0 1.0 0.00 0.00 0.00 99 1016.2
20260831095648 78 242 0.0 1.0 0.00 0.00 0.00 99 1016.0
20260831095143 78 230 0.0 1.0 0.00 0.00 0.00 98 1015.9
20260831094638 78 269 0.0 0.0 0.00 0.00 0.00 98 1016.2
20260831094135 78 269 0.0 1.0 0.00 0.00 0.00 98 1016.0
20260831093630 78 186 0.0 1.0 0.00 0.00 0.00 98 1016.3
20260831093126 78 230 0.0 1.0 0.00 0.00 0.00 98 1016.1
20260831092622 78 180 0.0 0.0 0.00 0.00 0.00 98 1015.9
20260831092117 79 180 0.0 0.0 0.00 0.00 0.00 97 1015.9
20260831091616 79 186 0.0 0.0 0.00 0.00 0.00 97 1015.9
20260831091112 79 230 0.0 0.0 0.00 0.00 0.00 97 1015.9
20260831090608 79 230 0.0 0.0 0.00 0.00 0.00 97 1015.8
20260831090104 79 230 0.0 0.0 0.00 0.00 0.00 96 1015.8
20260831085559 79 230 0.0 0.0 0.00 0.00 0.00 96 1015.8
20260831085054 79 230 0.0 0.0 0.00 0.00 0.00 96 1015.9
20260831084550 79 230 0.0 0.0 0.00 0.00 0.00 96 1015.9
20260831084046 79 230 0.0 1.0 0.00 0.00 0.00 96 1016.1
20260831083542 80 304 0.0 1.0 0.00 0.00 0.00 96 1016.1
20260831083036 80 217 0.0 0.0 0.00 0.00 0.00 95 1015.9
20260831082535 80 217 0.0 0.0 0.00 0.00 0.00 95 1016.1
20260831082031 80 242 0.0 1.0 0.00 0.00 0.00 95 1016.1
20260831081527 80 293 0.0 1.0 0.00 0.00 0.00 95 1016.0
20260831081023 80 224 0.0 1.0 0.00 0.00 0.00 95 1016.2
20260831080522 80 217 0.0 1.0 0.00 0.00 0.00 95 1016.2
20260831080018 80 205 0.0 0.0 0.00 0.00 0.00 95 1016.4
20260831075513 80 210 0.0 1.0 0.00 0.00 0.00 95 1016.3
20260831075009 80 235 0.0 0.0 0.00 0.00 0.00 94 1016.4
20260831074508 80 235 0.0 1.0 0.00 0.00 0.00 94 1016.3
20260831074003 80 240 0.0 1.0 0.00 0.00 0.00 94 1016.4
20260831073503 80 235 0.0 2.0 0.00 0.00 0.00 93 1016.3
20260831073002 80 242 0.0 1.0 0.00 0.00 0.00 93 1016.2
20260831072457 81 154 0.0 1.0 0.00 0.00 0.00 93 1016.3
20260831071954 81 209 1.0 2.0 0.00 0.00 0.00 93 1016.1
20260831071453 81 205 0.0 0.0 0.00 0.00 0.00 92 1016.1
20260831070948 81 208 0.0 2.0 0.00 0.00 0.00 92 1016.3
20260831070447 81 230 0.0 0.0 0.00 0.00 0.00 92 1016.5
20260831065946 82 235 0.0 2.0 0.00 0.00 0.00 91 1016.5
20260831065445 82 205 0.0 2.0 0.00 0.00 0.00 91 1016.2
20260831064940 82 230 0.0 1.0 0.00 0.00 0.00 91 1016.2
20260831064435 82 256 0.0 3.0 0.00 0.00 0.00 91 1016.4
20260831063931 82 220 0.0 3.0 0.00 0.00 0.00 91 1016.5
20260831063426 82 155 0.0 3.0 0.00 0.00 0.00 91 1016.4
20260831062925 81 104 0.0 1.0 0.00 0.00 0.00 92 1016.5
20260831062421 81 130 0.0 1.0 0.00 0.00 0.00 92 1016.5
20260831061920 81 217 0.0 1.0 0.00 0.00 0.00 91 1016.5
20260831061419 82 217 0.0 1.0 0.00 0.00 0.00 91 1016.4
20260831060915 82 242 0.0 1.0 0.00 0.00 0.00 90 1016.5
20260831060410 82 157 0.0 1.0 0.00 0.00 0.00 90 1016.5
20260831055909 82 251 0.0 1.0 0.00 0.00 0.00 90 1016.5
20260831055404 82 89 0.0 1.0 0.00 0.00 0.00 90 1016.8
20260831054900 82 217 0.0 1.0 0.00 0.00 0.00 89 1016.4
20260831054354 82 89 0.0 3.0 0.00 0.00 0.00 89 1016.5
20260831053854 82 230 0.0 1.0 0.00 0.00 0.00 89 1016.5
20260831053352 82 164 0.0 3.0 0.00 0.00 0.00 89 1016.3
20260831052847 82 104 0.0 2.0 0.00 0.00 0.00 89 1016.4
20260831052346 82 230 0.0 3.0 0.00 0.00 0.00 88 1016.4
20260831051845 82 129 0.0 1.0 0.00 0.00 0.00 88 1016.6
20260831051343 82 230 0.0 0.0 0.00 0.00 0.00 88 1016.5
20260831050838 82 238 0.0 3.0 0.00 0.00 0.00 88 1016.4
20260831050337 82 253 0.0 2.0 0.00 0.00 0.00 88 1016.2
20260831045832 82 255 0.0 0.0 0.00 0.00 0.00 87 1016.5
20260831045326 83 217 0.0 2.0 0.00 0.00 0.00 87 1016.4
20260831044821 83 106 0.0 2.0 0.00 0.00 0.00 86 1016.4
20260831044316 83 113 0.0 3.0 0.00 0.00 0.00 86 1016.2
20260831043812 83 99 2.0 3.0 0.00 0.00 0.00 85 1016.3
20260831043312 83 202 0.0 2.0 0.00 0.00 0.00 85 1016.1
20260831042807 83 217 0.0 2.0 0.00 0.00 0.00 85 1016.4
20260831042307 83 205 0.0 2.0 0.00 0.00 0.00 84 1016.2
20260831041802 83 139 1.0 3.0 0.00 0.00 0.00 84 1016.3
20260831041301 83 224 0.0 4.0 0.00 0.00 0.00 84 1016.4
20260831040756 83 290 0.0 2.0 0.00 0.00 0.00 84 1016.2
20260831040255 84 224 0.0 2.0 0.00 0.00 0.00 84 1016.2
20260831035754 84 180 0.0 2.0 0.00 0.00 0.00 84 1016.1
20260831035253 83 184 0.0 2.0 0.00 0.00 0.00 84 1016.2
20260831034753 83 218 0.0 1.0 0.00 0.00 0.00 83 1016.2
20260831034248 84 191 1.0 3.0 0.00 0.00 0.00 83 1016.0
20260831033743 84 226 1.0 5.0 0.00 0.00 0.00 83 1015.8
20260831033243 84 196 1.0 3.0 0.00 0.00 0.00 83 1016.1
20260831032738 84 212 0.0 3.0 0.00 0.00 0.00 83 1016.0
20260831032233 84 151 0.0 3.0 0.00 0.00 0.00 82 1015.7
20260831031728 84 211 0.0 3.0 0.00 0.00 0.00 82 1015.9
20260831031223 84 216 0.0 2.0 0.00 0.00 0.00 81 1015.9
20260831030722 84 126 2.0 3.0 0.00 0.00 0.00 81 1015.6
20260831030221 84 218 1.0 2.0 0.00 0.00 0.00 81 1015.8
20260831025720 84 148 3.0 4.0 0.00 0.00 0.00 81 1015.8
20260831025214 85 185 0.0 3.0 0.00 0.00 0.00 81 1015.4
20260831024710 85 261 0.0 4.0 0.00 0.00 0.00 80 1015.6
20260831024204 85 145 2.0 3.0 0.00 0.00 0.00 80 1015.9
20260831023702 85 242 0.0 3.0 0.00 0.00 0.00 80 1015.7
20260831023201 85 96 1.0 2.0 0.00 0.00 0.00 80 1015.5
20260831022656 85 190 1.0 3.0 0.00 0.00 0.00 79 1015.3
20260831022151 85 158 2.0 3.0 0.00 0.00 0.00 78 1015.1
20260831021650 85 256 1.0 3.0 0.00 0.00 0.00 78 1015.3
20260831021146 86 230 1.0 3.0 0.00 0.00 0.00 78 1015.1
20260831020642 86 212 0.0 2.0 0.00 0.00 0.00 78 1015.2
20260831020136 86 217 0.0 3.0 0.00 0.00 0.00 78 1015.0
20260831015632 86 239 1.0 2.0 0.00 0.00 0.00 77 1015.1
20260831015131 86 243 0.0 3.0 0.00 0.00 0.00 77 1015.0
20260831014626 86 220 2.0 4.0 0.00 0.00 0.00 76 1015.1
20260831014121 86 237 0.0 2.0 0.00 0.00 0.00 76 1014.8
20260831013618 86 261 2.0 2.0 0.00 0.00 0.00 76 1015.1
20260831013117 86 205 0.0 5.0 0.00 0.00 0.00 75 1015.0
20260831012612 87 265 1.0 3.0 0.00 0.00 0.00 75 1014.8
20260831012107 87 196 1.0 4.0 0.00 0.00 0.00 75 1014.8
20260831011606 87 223 2.0 3.0 0.00 0.00 0.00 73 1014.8
20260831011102 87 233 2.0 5.0 0.00 0.00 0.00 73 1014.6
20260831010557 87 246 2.0 7.0 0.00 0.00 0.00 72 1014.5
20260831010054 88 218 1.0 3.0 0.00 0.00 0.00 71 1014.9
20260831005548 88 96 2.0 3.0 0.00 0.00 0.00 71 1014.7
20260831005048 88 204 0.0 4.0 0.00 0.00 0.00 71 1014.8
20260831004544 88 258 4.0 7.0 0.00 0.00 0.00 70 1015.1
20260831004039 88 181 1.0 4.0 0.00 0.00 0.00 70 1014.7
20260831003536 89 112 0.0 3.0 0.00 0.00 0.00 69 1014.6
20260831003031 89 308 1.0 5.0 0.00 0.00 0.00 68 1014.7
20260831002530 89 156 2.0 8.0 0.00 0.00 0.00 67 1014.8
20260831002025 89 194 2.0 4.0 0.00 0.00 0.00 67 1014.6
20260831001521 90 201 1.0 4.0 0.00 0.00 0.00 66 1014.8
20260831001017 90 165 2.0 7.0 0.00 0.00 0.00 64 1014.6
20260831000513 90 170 3.0 5.0 0.00 0.00 0.00 64 1014.8
20260831000012 90 115 3.0 7.0 0.00 0.00 0.00 64 1014.9
20260830235512 91 180 1.0 3.0 0.00 0.00 0.00 64 1014.8
20260830235007 91 202 0.0 3.0 0.00 0.00 0.00 64 1014.9
20260830234502 91 158 1.0 7.0 0.00 0.00 0.00 63 1014.7
20260830233957 91 260 0.0 5.0 0.00 0.00 0.00 62 1014.7
20260830233453 91 145 3.0 8.0 0.00 0.00 0.00 61 1014.6
20260830232948 92 170 2.0 7.0 0.00 0.00 0.00 61 1014.6
20260830232444 92 196 2.0 5.0 0.00 0.00 0.00 60 1014.5
20260830231941 92 204 2.0 5.0 0.00 0.00 0.00 60 1014.6
20260830231436 93 227 3.0 6.0 0.00 0.00 0.00 60 1014.8
20260830230935 93 195 2.0 6.0 0.00 0.00 0.00 59 1014.7
20260830230430 95 215 0.0 6.0 0.00 0.00 0.00 57 1014.7
20260830225929 94 172 2.0 11.0 0.00 0.00 0.00 58 1014.7
20260830225425 94 284 2.0 13.0 0.00 0.00 0.00 58 1014.5
20260830224920 95 237 4.0 8.0 0.00 0.00 0.00 57 1014.5
20260830224418 96 218 2.0 7.0 0.00 0.00 0.00 56 1014.7
20260830223915 95 215 1.0 11.0 0.00 0.00 0.00 57 1014.5
20260830223412 95 112 2.0 10.0 0.00 0.00 0.00 60 1014.8
20260830222910 95 294 1.0 7.0 0.00 0.00 0.00 60 1014.6
20260830222406 95 130 4.0 9.0 0.00 0.00 0.00 61 1014.6
20260830221902 95 129 2.0 10.0 0.00 0.00 0.00 61 1014.5
20260830221358 96 209 2.0 8.0 0.00 0.00 0.00 60 1014.5
20260830220853 96 172 2.0 9.0 0.00 0.00 0.00 60 1014.5
20260830220353 96 110 2.0 6.0 0.00 0.00 0.00 60 1014.6
20260830215850 95 142 3.0 12.0 0.00 0.00 0.00 62 1014.8
20260830215345 96 172 3.0 11.0 0.00 0.00 0.00 61 1014.6
20260830214840 96 102 1.0 8.0 0.00 0.00 0.00 61 1014.8
20260830214335 96 113 4.0 8.0 0.00 0.00 0.00 60 1014.5
20260830213835 97 159 3.0 10.0 0.00 0.00 0.00 61 1014.5
20260830213330 97 180 2.0 5.0 0.00 0.00 0.00 60 1014.8
20260830212826 95 235 1.0 9.0 0.00 0.00 0.00 62 1014.8
20260830212322 96 152 4.0 9.0 0.00 0.00 0.00 61 1014.9
20260830211820 96 102 4.0 9.0 0.00 0.00 0.00 61 1014.9
20260830211315 97 151 3.0 6.0 0.00 0.00 0.00 61 1014.9
20260830210811 96 200 3.0 9.0 0.00 0.00 0.00 61 1014.8
20260830210310 97 182 2.0 13.0 0.00 0.00 0.00 60 1015.0
20260830205808 98 209 2.0 7.0 0.00 0.00 0.00 60 1015.1
20260830205307 97 202 2.0 7.0 0.00 0.00 0.00 60 1015.1
20260830204803 97 208 2.0 10.0 0.00 0.00 0.00 60 1015.3
20260830204302 96 159 2.0 8.0 0.00 0.00 0.00 60 1015.3
20260830203758 97 119 13.0 13.0 0.00 0.00 0.00 59 1015.4
20260830203254 97 202 3.0 8.0 0.00 0.00 0.00 60 1015.4
20260830202753 96 173 2.0 6.0 0.00 0.00 0.00 60 1015.5
20260830202249 97 148 7.0 9.0 0.00 0.00 0.00 60 1015.5
20260830201748 98 131 5.0 7.0 0.00 0.00 0.00 58 1015.5
20260830201243 98 122 7.0 12.0 0.00 0.00 0.00 58 1015.6
20260830200738 98 165 1.0 7.0 0.00 0.00 0.00 58 1015.6
20260830200238 98 128 0.0 9.0 0.00 0.00 0.00 58 1015.7
20260830195733 98 171 1.0 5.0 0.00 0.00 0.00 59 1015.9
20260830195232 97 146 4.0 7.0 0.00 0.00 0.00 60 1015.8
20260830194731 96 178 3.0 7.0 0.00 0.00 0.00 62 1015.9
20260830194225 97 164 2.0 6.0 0.00 0.00 0.00 61 1016.0
20260830193720 96 174 3.0 7.0 0.00 0.00 0.00 61 1015.9
20260830193214 98 244 5.0 7.0 0.00 0.00 0.00 58 1016.1
20260830192710 99 191 2.0 6.0 0.00 0.00 0.00 56 1016.1
20260830192205 98 8 1.0 2.0 0.00 0.00 0.00 57 1016.2
20260830191701 97 142 1.0 8.0 0.00 0.00 0.00 57 1016.2
20260830191155 98 159 0.0 4.0 0.00 0.00 0.00 57 1016.3
20260830190650 97 237 2.0 4.0 0.00 0.00 0.00 59 1016.7
20260830190145 98 142 0.0 6.0 0.00 0.00 0.00 58 1016.6
20260830185643 97 200 2.0 5.0 0.00 0.00 0.00 58 1016.8
20260830185140 97 211 2.0 5.0 0.00 0.00 0.00 58 1016.7
20260830184638 99 256 4.0 5.0 0.00 0.00 0.00 54 1016.7
20260830184133 98 195 0.0 5.0 0.00 0.00 0.00 56 1016.7
20260830183634 97 230 1.0 9.0 0.00 0.00 0.00 55 1017.0
20260830183129 98 151 1.0 7.0 0.00 0.00 0.00 55 1017.1
20260830182624 98 326 0.0 5.0 0.00 0.00 0.00 56 1016.9
20260830182120 98 279 0.0 5.0 0.00 0.00 0.00 51 1017.2
20260830181616 97 256 0.0 3.0 0.00 0.00 0.00 54 1017.0
20260830181116 98 241 5.0 6.0 0.00 0.00 0.00 51 1017.3
20260830180615 100 198 2.0 3.0 0.00 0.00 0.00 51 1017.4
20260830180115 98 326 0.0 4.0 0.00 0.00 0.00 54 1017.6
20260830175613 97 167 3.0 4.0 0.00 0.00 0.00 55 1017.6
20260830175109 96 263 5.0 6.0 0.00 0.00 0.00 56 1017.4
20260830174604 96 213 2.0 7.0 0.00 0.00 0.00 56 1017.8
20260830174100 97 257 2.0 5.0 0.00 0.00 0.00 55 1017.7
20260830173555 96 280 0.0 6.0 0.00 0.00 0.00 56 1017.9
20260830173050 96 319 2.0 5.0 0.00 0.00 0.00 54 1018.0
20260830172547 96 230 0.0 5.0 0.00 0.00 0.00 57 1018.0
20260830172043 98 273 4.0 8.0 0.00 0.00 0.00 54 1018.0
20260830171538 97 269 0.0 3.0 0.00 0.00 0.00 57 1018.0
20260830171033 96 257 1.0 3.0 0.00 0.00 0.00 57 1018.2
20260830170532 96 318 3.0 5.0 0.00 0.00 0.00 58 1018.2
20260830170032 96 250 2.0 3.0 0.00 0.00 0.00 60 1018.2
20260830165527 96 176 2.0 5.0 0.00 0.00 0.00 58 1018.1
20260830165023 95 178 2.0 7.0 0.00 0.00 0.00 61 1018.2
20260830164518 94 124 0.0 7.0 0.00 0.00 0.00 63 1018.1
20260830164014 95 132 2.0 6.0 0.00 0.00 0.00 62 1018.2
20260830163511 97 259 0.0 3.0 0.00 0.00 0.00 62 1018.1
20260830163010 95 132 4.0 5.0 0.00 0.00 0.00 64 1018.2
20260830162507 95 243 3.0 5.0 0.00 0.00 0.00 64 1018.3
20260830162006 95 255 2.0 3.0 0.00 0.00 0.00 65 1018.2
20260830161501 94 327 1.0 2.0 0.00 0.00 0.00 66 1018.4
20260830160955 93 235 1.0 3.0 0.00 0.00 0.00 68 1018.2
20260830160452 93 336 0.0 3.0 0.00 0.00 0.00 70 1018.3
20260830155947 93 320 5.0 5.0 0.00 0.00 0.00 69 1018.3
20260830155443 94 305 2.0 4.0 0.00 0.00 0.00 68 1018.1
20260830154938 94 309 0.0 1.0 0.00 0.00 0.00 69 1018.1
20260830154434 93 116 0.0 4.0 0.00 0.00 0.00 70 1018.1
20260830153930 92 245 2.0 4.0 0.00 0.00 0.00 69 1018.1
20260830153426 92 128 0.0 6.0 0.00 0.00 0.00 72 1018.1
20260830152925 92 219 3.0 5.0 0.00 0.00 0.00 70 1018.2
20260830152420 92 75 0.0 2.0 0.00 0.00 0.00 72 1018.3
20260830151919 91 193 1.0 7.0 0.00 0.00 0.00 73 1018.4
20260830151420 89 9 0.0 2.0 0.00 0.00 0.00 76 1018.4
20260830150914 89 227 3.0 5.0 0.00 0.00 0.00 77 1018.2
20260830150414 88 210 0.0 3.0 0.00 0.00 0.00 78 1018.6
20260830145902 91 222 2.0 3.0 0.00 0.00 0.00 74 1018.5
20260830145357 90 255 0.0 2.0 0.00 0.00 0.00 76 1018.4
20260830144852 88 103 0.0 2.0 0.00 0.00 0.00 78 1018.4
20260830144349 88 298 2.0 5.0 0.00 0.00 0.00 79 1018.2
20260830143844 89 232 0.0 2.0 0.00 0.00 0.00 78 1018.4
20260830143343 89 315 1.0 3.0 0.00 0.00 0.00 79 1018.2
20260830142838 91 309 0.0 3.0 0.00 0.00 0.00 77 1018.4
20260830142333 90 242 0.0 2.0 0.00 0.00 0.00 78 1018.3
20260830141828 91 49 0.0 3.0 0.00 0.00 0.00 76 1018.3
20260830141323 91 340 0.0 2.0 0.00 0.00 0.00 77 1018.5
20260830140818 90 11 0.0 2.0 0.00 0.00 0.00 79 1018.4
20260830140313 88 269 0.0 2.0 0.00 0.00 0.00 82 1018.4
20260830135807 86 320 0.0 3.0 0.00 0.00 0.00 86 1018.4
20260830135306 87 284 2.0 4.0 0.00 0.00 0.00 83 1018.1
20260830134758 88 309 0.0 1.0 0.00 0.00 0.00 82 1018.2
20260830134258 89 253 0.0 1.0 0.00 0.00 0.00 81 1018.0
20260830133754 87 325 0.0 1.0 0.00 0.00 0.00 84 1017.9
20260830133249 86 62 0.0 2.0 0.00 0.00 0.00 86 1018.1
20260830132745 85 15 0.0 1.0 0.00 0.00 0.00 87 1017.7
20260830132241 84 315 0.0 1.0 0.00 0.00 0.00 89 1017.9
20260830131739 83 212 0.0 0.0 0.00 0.00 0.00 92 1018.0
20260830131234 81 55 0.0 2.0 0.00 0.00 0.00 94 1017.9
20260830130729 81 142 0.0 0.0 0.00 0.00 0.00 94 1017.8
20260830130224 81 37 0.0 2.0 0.00 0.00 0.00 94 1017.6
20260830125724 80 32 0.0 2.0 0.00 0.00 0.00 96 1017.6
20260830125219 79 37 0.0 1.0 0.00 0.00 0.00 98 1017.4
20260830124716 78 13 0.0 0.0 0.00 0.00 0.00 99 1017.8
20260830124212 77 195 0.0 0.0 0.00 0.00 0.00 99 1017.6
20260830123709 77 195 0.0 1.0 0.00 0.00 0.00 99 1017.2
20260830123205 77 199 0.0 1.0 0.00 0.00 0.00 99 1017.4
20260830122702 76 315 0.0 1.0 0.00 0.00 0.00 99 1017.3
20260830122157 76 297 0.0 1.0 0.00 0.00 0.00 99 1017.3
20260830121652 76 154 0.0 0.0 0.00 0.00 0.00 99 1017.7
20260830121152 76 154 0.0 0.0 0.00 0.00 0.00 99 1017.3
20260830120647 76 343 0.0 1.0 0.00 0.00 0.00 99 1017.4
20260830120143 76 166 0.0 1.0 0.00 0.00 0.00 99 1017.4
20260830115639 76 166 0.0 0.0 0.00 0.00 0.00 99 1017.2